CPA843 KJFK-VHHH

Flight info

Callsign CPA843
Flight time N/A
Altitude 34000
Route DCT GREKI DCT JUDDS DCT CAM DCT YVO DCT 50N080W 55N084W 59N090W 63N100W 65N110W 66N120W 67N130W DCT GOATS DCT BTT NCA30 OME R338 NATES/N0492F360 R220 NOGAL/N0488F370 R220 NODAN/N0487F380 R220 IXE Y88 NAKTU Y12 KOHWA Y54 TURFY Y24 KOSHI Y50 IGMON/N0482F400 A1 APU DCT MKG A1 ELATO V522 ABBEY ABBEY4A
Aircraft A35K/H-SL/L

Departure

Time 2026-04-30 11:18
Airport John F. Kennedy International Airport (KJFK)

Arrival

Time N/A
Airport Hong Kong International Airport (VHHH)
Time Latitude Longitude Altitude Speed Heading
2026-04-30 10:26 40.64942 -73.78981 30 ft 0 kts 199°
2026-04-30 10:56 40.64947 -73.78978 29 ft 4 kts 199°
2026-04-30 10:56 40.64973 -73.78967 27 ft 4 kts 198°
2026-04-30 10:56 40.64993 -73.78958 27 ft 4 kts 199°
2026-04-30 10:57 40.65018 -73.78944 26 ft 4 kts 211°
2026-04-30 10:57 40.65040 -73.78923 27 ft 4 kts 224°
2026-04-30 10:57 40.65057 -73.78898 27 ft 2 kts 234°
2026-04-30 10:57 40.65059 -73.78895 27 ft 0 kts 234°
2026-04-30 11:03 40.65050 -73.78919 29 ft 2 kts 262°
2026-04-30 11:03 40.65054 -73.78925 29 ft 0 kts 293°
2026-04-30 11:03 40.65054 -73.78926 29 ft 0 kts 295°
2026-04-30 11:04 40.65060 -73.78929 29 ft 1 kts 328°
2026-04-30 11:04 40.65063 -73.78929 29 ft 1 kts 346°
2026-04-30 11:04 40.65075 -73.78924 28 ft 3 kts 12°
2026-04-30 11:04 40.65095 -73.78919 27 ft 6 kts 12°
2026-04-30 11:05 40.65148 -73.78908 29 ft 10 kts
2026-04-30 11:05 40.65204 -73.78885 29 ft 8 kts 47°
2026-04-30 11:05 40.65224 -73.78805 29 ft 11 kts 76°
2026-04-30 11:05 40.65258 -73.78706 31 ft 12 kts 61°
2026-04-30 11:06 40.65298 -73.78611 31 ft 15 kts 61°
2026-04-30 11:06 40.65351 -73.78471 29 ft 18 kts 65°
2026-04-30 11:06 40.65362 -73.78443 30 ft 2 kts 60°
2026-04-30 11:06 40.65372 -73.78422 30 ft 4 kts 57°
2026-04-30 11:07 40.65395 -73.78374 30 ft 8 kts 57°
2026-04-30 11:07 40.65436 -73.78287 27 ft 14 kts 59°
2026-04-30 11:07 40.65488 -73.78164 26 ft 14 kts 69°
2026-04-30 11:07 40.65460 -73.78040 28 ft 15 kts 122°
2026-04-30 11:08 40.65400 -73.77911 27 ft 18 kts 122°
2026-04-30 11:08 40.65333 -73.77768 31 ft 18 kts 122°
2026-04-30 11:08 40.65272 -73.77633 27 ft 16 kts 121°
2026-04-30 11:08 40.65214 -73.77503 27 ft 16 kts 121°
2026-04-30 11:09 40.65160 -73.77384 31 ft 14 kts 121°
2026-04-30 11:09 40.65111 -73.77276 31 ft 13 kts 121°
2026-04-30 11:09 40.65066 -73.77178 26 ft 12 kts 121°
2026-04-30 11:09 40.65026 -73.77088 27 ft 11 kts 121°
2026-04-30 11:10 40.64989 -73.77007 27 ft 10 kts 121°
2026-04-30 11:10 40.64953 -73.76929 27 ft 10 kts 121°
2026-04-30 11:10 40.64920 -73.76855 27 ft 9 kts 121°
2026-04-30 11:10 40.64890 -73.76789 27 ft 8 kts 120°
2026-04-30 11:11 40.64878 -73.76732 27 ft 5 kts 76°
2026-04-30 11:11 40.64898 -73.76690 27 ft 5 kts 49°
2026-04-30 11:11 40.64929 -73.76660 27 ft 6 kts 33°
2026-04-30 11:11 40.64962 -73.76631 27 ft 6 kts 32°
2026-04-30 11:12 40.64998 -73.76604 27 ft 6 kts 30°
2026-04-30 11:12 40.65034 -73.76576 27 ft 6 kts 30°
2026-04-30 11:12 40.65070 -73.76549 27 ft 6 kts 31°
2026-04-30 11:12 40.65094 -73.76511 27 ft 5 kts 68°
2026-04-30 11:13 40.65093 -73.76476 28 ft 3 kts 99°
2026-04-30 11:13 40.65088 -73.76458 28 ft 1 kts 115°
2026-04-30 11:13 40.65088 -73.76457 28 ft 0 kts 116°
2026-04-30 11:15 40.65087 -73.76457 28 ft 0 kts 116°
2026-04-30 11:15 40.65080 -73.76438 28 ft 3 kts 117°
2026-04-30 11:15 40.65067 -73.76406 28 ft 5 kts 119°
2026-04-30 11:16 40.65040 -73.76366 28 ft 6 kts 155°
2026-04-30 11:16 40.64995 -73.76378 28 ft 7 kts 207°
2026-04-30 11:16 40.64971 -73.76396 28 ft 1 kts 211°
2026-04-30 11:16 40.64963 -73.76403 28 ft 0 kts 211°
2026-04-30 11:17 40.64954 -73.76410 28 ft 2 kts 211°
2026-04-30 11:17 40.64845 -73.76495 27 ft 50 kts 211°
2026-04-30 11:17 40.64336 -73.76893 27 ft 118 kts 211°
2026-04-30 11:17 40.63449 -73.77585 30 ft 176 kts 211°
2026-04-30 11:18 40.62278 -73.78494 367 ft 201 kts 209°
2026-04-30 11:18 40.59952 -73.80281 2006 ft 195 kts 211°
2026-04-30 11:18 40.58773 -73.81195 2280 ft 204 kts 211°
2026-04-30 11:19 40.57520 -73.82167 2564 ft 214 kts 212°
2026-04-30 11:19 40.56190 -73.83200 2754 ft 229 kts 212°
2026-04-30 11:19 40.54775 -73.84299 2985 ft 242 kts 212°
2026-04-30 11:19 40.53303 -73.85442 3363 ft 248 kts 212°
2026-04-30 11:20 40.51820 -73.86645 3815 ft 252 kts 215°
2026-04-30 11:20 40.50341 -73.87910 4246 ft 257 kts 215°
2026-04-30 11:20 40.48927 -73.89365 4658 ft 259 kts 228°
2026-04-30 11:20 40.47933 -73.91316 5093 ft 259 kts 250°
2026-04-30 11:21 40.47654 -73.93633 5585 ft 259 kts 275°
2026-04-30 11:21 40.48233 -73.95870 6062 ft 264 kts 302°
2026-04-30 11:21 40.49593 -73.97506 6509 ft 274 kts 330°
2026-04-30 11:21 40.51469 -73.98085 6909 ft 286 kts
2026-04-30 11:22 40.53428 -73.97516 7358 ft 293 kts 18°
2026-04-30 11:22 40.55308 -73.96428 7832 ft 297 kts 25°
2026-04-30 11:22 40.57130 -73.95108 8307 ft 302 kts 28°
2026-04-30 11:22 40.58931 -73.93716 8789 ft 305 kts 28°
2026-04-30 11:23 40.60803 -73.92279 9290 ft 309 kts 28°
2026-04-30 11:23 40.62688 -73.90879 9746 ft 313 kts 27°
2026-04-30 11:23 40.66579 -73.88125 10395 ft 330 kts 25°
2026-04-30 11:24 40.68655 -73.86699 10608 ft 343 kts 25°
2026-04-30 11:24 40.70815 -73.85224 10801 ft 356 kts 25°
2026-04-30 11:24 40.73000 -73.83733 11027 ft 368 kts 25°
2026-04-30 11:25 40.77742 -73.80479 11481 ft 391 kts 25°
2026-04-30 11:25 40.80191 -73.78792 11715 ft 402 kts 25°
2026-04-30 11:25 40.85260 -73.75290 12251 ft 418 kts 25°
2026-04-30 11:26 40.90462 -73.71684 13085 ft 426 kts 25°
2026-04-30 11:26 40.93100 -73.69854 13493 ft 429 kts 25°
2026-04-30 11:26 40.95753 -73.68013 13875 ft 433 kts 25°
2026-04-30 11:27 40.98423 -73.66159 14241 ft 435 kts 25°
2026-04-30 11:27 41.01115 -73.64288 14598 ft 439 kts 25°
2026-04-30 11:27 41.03829 -73.62401 14983 ft 441 kts 25°
2026-04-30 11:27 41.06557 -73.60502 15386 ft 444 kts 25°
2026-04-30 11:28 41.12060 -73.56666 16193 ft 450 kts 25°
2026-04-30 11:28 41.14839 -73.54727 16583 ft 453 kts 25°
2026-04-30 11:28 41.17634 -73.52773 16989 ft 455 kts 25°
2026-04-30 11:29 41.20445 -73.50808 17384 ft 458 kts 25°
2026-04-30 11:29 41.23272 -73.48829 17783 ft 461 kts 25°
2026-04-30 11:29 41.28976 -73.44829 18510 ft 466 kts 25°
2026-04-30 11:30 41.34749 -73.40774 19199 ft 471 kts 25°
2026-04-30 11:30 41.37655 -73.38729 19550 ft 474 kts 25°
2026-04-30 11:30 41.40537 -73.36699 19922 ft 476 kts 25°
2026-04-30 11:31 41.43476 -73.34627 20276 ft 479 kts 25°
2026-04-30 11:31 41.46399 -73.32460 20624 ft 484 kts 30°
2026-04-30 11:31 41.49097 -73.29733 20987 ft 488 kts 39°
2026-04-30 11:31 41.51633 -73.26706 21402 ft 490 kts 42°
2026-04-30 11:32 41.54097 -73.23541 21787 ft 493 kts 44°
2026-04-30 11:32 41.56530 -73.20300 22139 ft 496 kts 44°
2026-04-30 11:32 41.59133 -73.17266 22489 ft 497 kts 35°
2026-04-30 11:33 41.65244 -73.13086 23160 ft 494 kts 12°
2026-04-30 11:33 41.68608 -73.12237 23481 ft 490 kts
2026-04-30 11:33 41.71999 -73.12243 23779 ft 487 kts 351°
2026-04-30 11:33 41.75371 -73.12644 24099 ft 486 kts 349°
2026-04-30 11:34 41.78731 -73.13204 24449 ft 487 kts 347°
2026-04-30 11:34 41.82092 -73.13831 24754 ft 488 kts 347°
2026-04-30 11:34 41.85463 -73.14472 25046 ft 490 kts 347°
2026-04-30 11:34 41.88849 -73.15103 25362 ft 493 kts 347°
2026-04-30 11:35 41.92258 -73.15720 25666 ft 495 kts 348°
2026-04-30 11:35 41.95677 -73.16322 25956 ft 497 kts 348°
2026-04-30 11:35 41.99073 -73.16910 26266 ft 499 kts 348°
2026-04-30 11:35 42.02521 -73.17503 26510 ft 502 kts 348°
2026-04-30 11:36 42.05990 -73.18097 26789 ft 504 kts 348°
2026-04-30 11:36 42.09471 -73.18693 27066 ft 505 kts 348°
2026-04-30 11:36 42.12966 -73.19292 27328 ft 507 kts 348°
2026-04-30 11:36 42.16489 -73.19898 27603 ft 509 kts 348°
2026-04-30 11:37 42.20010 -73.20506 27885 ft 511 kts 348°
2026-04-30 11:37 42.23550 -73.21118 28094 ft 514 kts 348°
2026-04-30 11:37 42.27100 -73.21732 28344 ft 516 kts 348°
2026-04-30 11:37 42.30668 -73.22349 28603 ft 517 kts 348°
2026-04-30 11:38 42.34230 -73.22966 28976 ft 516 kts 348°
2026-04-30 11:38 42.37786 -73.23581 29356 ft 514 kts 348°
2026-04-30 11:38 42.41334 -73.24196 29673 ft 515 kts 349°
2026-04-30 11:38 42.44892 -73.24816 29837 ft 517 kts 349°
2026-04-30 11:39 42.48463 -73.25439 30069 ft 516 kts 349°
2026-04-30 11:39 42.52015 -73.26058 30369 ft 515 kts 349°
2026-04-30 11:39 42.55564 -73.26678 30628 ft 514 kts 349°
2026-04-30 11:39 42.59102 -73.27296 30864 ft 513 kts 349°
2026-04-30 11:40 42.62653 -73.27918 31066 ft 514 kts 349°
2026-04-30 11:40 42.66200 -73.28540 31214 ft 514 kts 349°
2026-04-30 11:40 42.69752 -73.29164 31430 ft 514 kts 349°
2026-04-30 11:40 42.73291 -73.29785 31659 ft 513 kts 349°
2026-04-30 11:41 42.76781 -73.30397 31922 ft 511 kts 349°
2026-04-30 11:41 42.80298 -73.31015 32212 ft 509 kts 349°
2026-04-30 11:41 42.87401 -73.32270 32375 ft 512 kts 349°
2026-04-30 11:42 42.90885 -73.32886 32550 ft 512 kts 349°
2026-04-30 11:42 42.94412 -73.33513 32747 ft 510 kts 349°
2026-04-30 11:42 42.97884 -73.34453 32886 ft 506 kts 340°
2026-04-30 11:42 43.01183 -73.36050 33027 ft 501 kts 332°
2026-04-30 11:43 43.07384 -73.40457 33037 ft 503 kts 327°
2026-04-30 11:43 43.10427 -73.42817 33223 ft 502 kts 326°
2026-04-30 11:43 43.13445 -73.45200 33407 ft 500 kts 326°
2026-04-30 11:44 43.16457 -73.47589 33561 ft 500 kts 326°
2026-04-30 11:44 43.19462 -73.49968 33702 ft 499 kts 326°
2026-04-30 11:44 43.25518 -73.54743 33595 ft 507 kts 326°
2026-04-30 11:45 43.31659 -73.59569 33697 ft 508 kts 326°
2026-04-30 11:45 43.34728 -73.61978 33804 ft 508 kts 326°
2026-04-30 11:45 43.37799 -73.64392 33813 ft 508 kts 326°
2026-04-30 11:46 43.43916 -73.69212 33812 ft 505 kts 326°
2026-04-30 11:46 43.49972 -73.73997 33805 ft 506 kts 326°
2026-04-30 11:47 43.56080 -73.78837 33800 ft 506 kts 326°
2026-04-30 11:47 43.62184 -73.83684 33785 ft 506 kts 326°
2026-04-30 11:48 43.68285 -73.88540 33785 ft 506 kts 326°
2026-04-30 11:48 43.74383 -73.93406 33777 ft 506 kts 326°
2026-04-30 11:49 43.80479 -73.98282 33780 ft 506 kts 326°
2026-04-30 11:49 43.86569 -74.03163 33778 ft 505 kts 326°
2026-04-30 11:50 43.92639 -74.08040 33776 ft 504 kts 326°
2026-04-30 11:50 43.98717 -74.12937 33774 ft 505 kts 326°
2026-04-30 11:51 44.04785 -74.17836 33778 ft 505 kts 326°
2026-04-30 11:51 44.10857 -74.22751 33778 ft 505 kts 326°
2026-04-30 11:52 44.15920 -74.26859 33779 ft 507 kts 326°
2026-04-30 11:52 44.22013 -74.31811 33777 ft 507 kts 326°
2026-04-30 11:53 44.28103 -74.36774 33786 ft 507 kts 326°
2026-04-30 11:53 44.34190 -74.41746 33749 ft 507 kts 326°
2026-04-30 11:54 44.40265 -74.46722 33756 ft 509 kts 326°
2026-04-30 11:54 44.46380 -74.51742 33768 ft 509 kts 326°
2026-04-30 11:55 44.52494 -74.56772 33778 ft 509 kts 326°
2026-04-30 11:55 44.58611 -74.61819 33792 ft 511 kts 326°
2026-04-30 11:56 44.64755 -74.66900 33797 ft 513 kts 326°
2026-04-30 11:56 44.70900 -74.71995 33809 ft 512 kts 326°
2026-04-30 11:57 44.77036 -74.77093 33800 ft 512 kts 326°
2026-04-30 11:57 44.83177 -74.82211 33796 ft 514 kts 326°
2026-04-30 11:58 44.89330 -74.87350 33794 ft 514 kts 326°
2026-04-30 11:58 44.95442 -74.92467 33794 ft 514 kts 326°
2026-04-30 11:59 45.01596 -74.97633 33760 ft 515 kts 325°
2026-04-30 11:59 45.07756 -75.02818 33775 ft 515 kts 325°
2026-04-30 12:00 45.13917 -75.08016 33763 ft 516 kts 325°
2026-04-30 12:00 45.20077 -75.13226 33753 ft 516 kts 325°
2026-04-30 12:01 45.26243 -75.18456 33755 ft 518 kts 325°
2026-04-30 12:01 45.32425 -75.23712 33763 ft 517 kts 325°
2026-04-30 12:02 45.38594 -75.28970 33774 ft 517 kts 325°
2026-04-30 12:02 45.44767 -75.34245 33777 ft 517 kts 325°
2026-04-30 12:03 45.54035 -75.42192 33788 ft 519 kts 325°
2026-04-30 12:04 45.60216 -75.47508 33780 ft 518 kts 325°
2026-04-30 12:04 45.66388 -75.52831 33781 ft 518 kts 325°
2026-04-30 12:05 45.72576 -75.58182 33774 ft 521 kts 325°
2026-04-30 12:05 45.78774 -75.63556 33784 ft 521 kts 325°
2026-04-30 12:06 45.84969 -75.68940 33836 ft 521 kts 325°
2026-04-30 12:06 45.91161 -75.74335 33798 ft 520 kts 325°
2026-04-30 12:07 45.97334 -75.79731 33805 ft 519 kts 325°
2026-04-30 12:07 46.03460 -75.85098 33807 ft 519 kts 325°
2026-04-30 12:08 46.09630 -75.90517 33823 ft 519 kts 325°
2026-04-30 12:08 46.15802 -75.95954 33831 ft 522 kts 325°
2026-04-30 12:09 46.21981 -76.01410 33820 ft 520 kts 325°
2026-04-30 12:09 46.28159 -76.06880 33820 ft 519 kts 325°
2026-04-30 12:10 46.34317 -76.12348 33828 ft 519 kts 325°
2026-04-30 12:10 46.40489 -76.17844 33827 ft 522 kts 325°
2026-04-30 12:11 46.46675 -76.23366 33843 ft 522 kts 325°
2026-04-30 12:11 46.52854 -76.28894 33830 ft 521 kts 325°
2026-04-30 12:12 46.59013 -76.34421 33835 ft 521 kts 325°
2026-04-30 12:12 46.65149 -76.39945 33848 ft 523 kts 325°
2026-04-30 12:13 46.71335 -76.45526 33852 ft 523 kts 325°
2026-04-30 12:13 46.77518 -76.51120 33852 ft 522 kts 325°
2026-04-30 12:14 46.83690 -76.56719 33862 ft 522 kts 325°
2026-04-30 12:14 46.89866 -76.62339 33866 ft 523 kts 325°
2026-04-30 12:15 46.96047 -76.67978 33874 ft 524 kts 325°
2026-04-30 12:15 47.02231 -76.73635 33871 ft 524 kts 325°
2026-04-30 12:16 47.08410 -76.79303 33888 ft 524 kts 325°
2026-04-30 12:16 47.14586 -76.84984 33889 ft 523 kts 325°
2026-04-30 12:17 47.23832 -76.93519 33897 ft 523 kts 325°
2026-04-30 12:17 47.29995 -76.99228 33908 ft 524 kts 325°
2026-04-30 12:18 47.36133 -77.04930 33911 ft 525 kts 325°
2026-04-30 12:18 47.42307 -77.10681 33919 ft 525 kts 324°
2026-04-30 12:19 47.48486 -77.16452 33918 ft 525 kts 324°
2026-04-30 12:19 47.54652 -77.22229 33920 ft 526 kts 324°
2026-04-30 12:20 47.60837 -77.28039 33922 ft 527 kts 324°
2026-04-30 12:20 47.67020 -77.33863 33943 ft 526 kts 324°
2026-04-30 12:21 47.73190 -77.39692 33934 ft 525 kts 324°
2026-04-30 12:21 47.79347 -77.45525 33940 ft 525 kts 324°
2026-04-30 12:22 47.85481 -77.51353 33939 ft 526 kts 324°
2026-04-30 12:22 47.91643 -77.57225 33933 ft 526 kts 324°
2026-04-30 12:23 47.97809 -77.63118 33939 ft 526 kts 324°
2026-04-30 12:23 48.03949 -77.69002 33924 ft 524 kts 324°
2026-04-30 12:24 48.10085 -77.74899 33927 ft 524 kts 324°
2026-04-30 12:24 48.16225 -77.80818 33930 ft 524 kts 324°
2026-04-30 12:25 48.22231 -77.86991 33972 ft 522 kts 320°
2026-04-30 12:25 48.27950 -77.93706 33993 ft 522 kts 319°
2026-04-30 12:26 48.33643 -78.00441 33980 ft 521 kts 319°
2026-04-30 12:26 48.39385 -78.07113 33985 ft 521 kts 320°
2026-04-30 12:27 48.45139 -78.13750 33985 ft 521 kts 320°
2026-04-30 12:27 48.50898 -78.20399 33995 ft 522 kts 320°
2026-04-30 12:28 48.56656 -78.27072 34000 ft 522 kts 320°
2026-04-30 12:28 48.62366 -78.33712 34004 ft 521 kts 320°
2026-04-30 12:29 48.68107 -78.40409 34007 ft 521 kts 320°
2026-04-30 12:29 48.73843 -78.47121 34009 ft 521 kts 320°
2026-04-30 12:30 48.79573 -78.53845 34016 ft 521 kts 320°
2026-04-30 12:30 48.85297 -78.60582 34013 ft 521 kts 320°
2026-04-30 12:31 48.91021 -78.67340 34012 ft 521 kts 320°
2026-04-30 12:31 48.96743 -78.74114 34010 ft 521 kts 320°
2026-04-30 12:32 49.02467 -78.80912 34010 ft 521 kts 320°
2026-04-30 12:32 49.08185 -78.87722 34015 ft 521 kts 320°
2026-04-30 12:33 49.13897 -78.94547 34018 ft 521 kts 320°
2026-04-30 12:33 49.19611 -79.01393 34020 ft 522 kts 320°
2026-04-30 12:34 49.25323 -79.08259 34018 ft 522 kts 319°
2026-04-30 12:34 49.31029 -79.15137 34021 ft 522 kts 319°
2026-04-30 12:35 49.36728 -79.22029 34021 ft 522 kts 319°
2026-04-30 12:35 49.42426 -79.28939 34030 ft 521 kts 320°
2026-04-30 12:36 49.48103 -79.35846 34024 ft 521 kts 320°
2026-04-30 12:36 49.53783 -79.42776 34031 ft 521 kts 319°
2026-04-30 12:37 49.59461 -79.49727 34034 ft 521 kts 319°
2026-04-30 12:37 49.65139 -79.56698 34034 ft 521 kts 319°
2026-04-30 12:38 49.70809 -79.63683 34039 ft 521 kts 320°
2026-04-30 12:38 49.75509 -79.69486 34032 ft 520 kts 319°
2026-04-30 12:39 49.81161 -79.76486 34039 ft 520 kts 319°
2026-04-30 12:39 49.86808 -79.83502 34033 ft 520 kts 319°
2026-04-30 12:40 49.92453 -79.90537 34048 ft 521 kts 319°
2026-04-30 12:40 49.98109 -79.97548 34038 ft 521 kts 322°
2026-04-30 12:41 50.04410 -80.03093 34042 ft 520 kts 333°
2026-04-30 12:41 50.10980 -80.07855 34048 ft 521 kts 335°
2026-04-30 12:42 50.17549 -80.12467 34046 ft 521 kts 335°
2026-04-30 12:42 50.24157 -80.17132 34053 ft 521 kts 335°
2026-04-30 12:43 50.30755 -80.21834 34060 ft 521 kts 334°
2026-04-30 12:43 50.37347 -80.26559 34055 ft 521 kts 334°
2026-04-30 12:44 50.43933 -80.31296 34065 ft 521 kts 334°
2026-04-30 12:44 50.50522 -80.36049 34070 ft 521 kts 334°
2026-04-30 12:45 50.57112 -80.40815 34075 ft 521 kts 334°
2026-04-30 12:45 50.63697 -80.45594 34076 ft 521 kts 334°
2026-04-30 12:46 50.70292 -80.50393 34079 ft 521 kts 334°
2026-04-30 12:46 50.76876 -80.55200 34073 ft 521 kts 334°
2026-04-30 12:47 50.83457 -80.60020 34077 ft 520 kts 334°
2026-04-30 12:47 50.90009 -80.64834 34081 ft 518 kts 334°
2026-04-30 12:48 50.96549 -80.69653 34078 ft 518 kts 334°
2026-04-30 12:48 51.03080 -80.74482 34092 ft 518 kts 334°
2026-04-30 12:49 51.09573 -80.79297 34097 ft 518 kts 334°
2026-04-30 12:49 51.16111 -80.84160 34084 ft 518 kts 334°
2026-04-30 12:50 51.22640 -80.89033 34090 ft 518 kts 334°
2026-04-30 12:50 51.29172 -80.93923 34097 ft 517 kts 334°
2026-04-30 12:51 51.35668 -80.98801 34102 ft 515 kts 334°
2026-04-30 12:51 51.42153 -81.03686 34106 ft 515 kts 334°
2026-04-30 12:52 51.48628 -81.08579 34098 ft 515 kts 334°
2026-04-30 12:52 51.55106 -81.13490 34123 ft 515 kts 334°
2026-04-30 12:53 51.61549 -81.18389 34103 ft 515 kts 334°
2026-04-30 12:53 51.68022 -81.23328 34120 ft 515 kts 334°
2026-04-30 12:54 51.74491 -81.28280 34113 ft 514 kts 334°
2026-04-30 12:54 51.80930 -81.33223 34114 ft 511 kts 334°
2026-04-30 12:55 51.87353 -81.38170 34112 ft 511 kts 334°
2026-04-30 12:55 51.93771 -81.43129 34116 ft 511 kts 334°
2026-04-30 12:56 52.00187 -81.48102 34115 ft 511 kts 334°
2026-04-30 12:56 52.06606 -81.53093 34115 ft 511 kts 334°
2026-04-30 12:57 52.13019 -81.58096 34118 ft 511 kts 334°
2026-04-30 12:57 52.19424 -81.63109 34121 ft 510 kts 334°
2026-04-30 12:58 52.25806 -81.68120 34124 ft 508 kts 334°
2026-04-30 12:58 52.32178 -81.73138 34121 ft 508 kts 334°
2026-04-30 12:59 52.38542 -81.78167 34121 ft 508 kts 334°
2026-04-30 12:59 52.44906 -81.83212 34123 ft 508 kts 334°
2026-04-30 13:00 52.51236 -81.88246 34116 ft 508 kts 334°
2026-04-30 13:00 52.57599 -81.93322 34127 ft 509 kts 334°
2026-04-30 13:01 52.63967 -81.98419 34127 ft 509 kts 334°
2026-04-30 13:01 52.70320 -82.03521 34124 ft 507 kts 334°
2026-04-30 13:02 52.76665 -82.08633 34124 ft 507 kts 334°
2026-04-30 13:02 52.83002 -82.13755 34127 ft 507 kts 334°
2026-04-30 13:03 52.89341 -82.18896 34128 ft 507 kts 334°
2026-04-30 13:03 52.95676 -82.24050 34127 ft 507 kts 334°
2026-04-30 13:04 53.02009 -82.29219 34121 ft 507 kts 334°
2026-04-30 13:04 53.08300 -82.34371 34126 ft 506 kts 334°
2026-04-30 13:05 53.14615 -82.39560 34136 ft 506 kts 334°
2026-04-30 13:06 53.24078 -82.47367 34130 ft 506 kts 334°
2026-04-30 13:06 53.30382 -82.52590 34133 ft 506 kts 334°
2026-04-30 13:07 53.36688 -82.57832 34123 ft 506 kts 333°
2026-04-30 13:07 53.42984 -82.63083 34129 ft 506 kts 333°
2026-04-30 13:08 53.49280 -82.68351 34129 ft 506 kts 333°
2026-04-30 13:08 53.55580 -82.73639 34128 ft 506 kts 333°
2026-04-30 13:09 53.61873 -82.78941 34131 ft 506 kts 333°
2026-04-30 13:09 53.68166 -82.84260 34130 ft 506 kts 333°
2026-04-30 13:10 53.74461 -82.89598 34131 ft 506 kts 333°
2026-04-30 13:10 53.80756 -82.94955 34135 ft 506 kts 333°
2026-04-30 13:11 53.87043 -83.00323 34128 ft 506 kts 333°
2026-04-30 13:11 53.93330 -83.05709 34128 ft 506 kts 333°
2026-04-30 13:12 53.99619 -83.11115 34131 ft 506 kts 333°
2026-04-30 13:12 54.05864 -83.16502 34126 ft 506 kts 333°
2026-04-30 13:13 54.15271 -83.24651 34135 ft 505 kts 333°
2026-04-30 13:14 54.24663 -83.32829 34134 ft 505 kts 333°
2026-04-30 13:14 54.34040 -83.41035 34146 ft 505 kts 333°
2026-04-30 13:15 54.43422 -83.49289 34136 ft 505 kts 333°
2026-04-30 13:16 54.49670 -83.54808 34139 ft 505 kts 333°
2026-04-30 13:16 54.55909 -83.60341 34141 ft 502 kts 334°
2026-04-30 13:17 54.65156 -83.68574 34136 ft 500 kts 334°
2026-04-30 13:18 54.74416 -83.76860 34148 ft 500 kts 333°
2026-04-30 13:18 54.83676 -83.85191 34145 ft 500 kts 334°
2026-04-30 13:19 54.89843 -83.90763 34154 ft 499 kts 333°
2026-04-30 13:19 54.95997 -83.96343 34151 ft 499 kts 333°
2026-04-30 13:20 55.01929 -84.02601 34151 ft 499 kts 326°
2026-04-30 13:20 55.07538 -84.09746 34156 ft 500 kts 324°
2026-04-30 13:21 55.13099 -84.17058 34160 ft 500 kts 323°
2026-04-30 13:22 55.21427 -84.28072 34158 ft 501 kts 323°
2026-04-30 13:22 55.29755 -84.39105 34159 ft 500 kts 323°
2026-04-30 13:23 55.38078 -84.50181 34162 ft 500 kts 323°
2026-04-30 13:24 55.49085 -84.64924 34157 ft 498 kts 322°
2026-04-30 13:25 55.60094 -84.79778 34162 ft 498 kts 322°
2026-04-30 13:26 55.73821 -84.98447 34175 ft 495 kts 321°
2026-04-30 13:28 55.86501 -85.15849 34180 ft 493 kts 321°